Voltar ao catálogo

COSMOS 2180

AtivoMilitarPO
NORAD 21875·PAYLOAD·🇷🇺 Russia

Lançado Feb 17, 1992 de Plesetsk Cosmodrome

Loading…

Próximas Passagens (próximas 24 horas)

TLE

AtualizadoSource: Space-Track

Época: Sep 14, 2026, 03:05 UTC

1 21875U 92008A   26257.12877259  .00000064  00000-0  51425-4 0  9996
2 21875  82.9300 155.6091 0038939  83.7921  78.9095 13.73969469733037

Acompanhe COSMOS 2180 em tempo real com AllMySat

Download on the App Store